OSCAR 7 (AO-7) 1 07530U 74089B 25306.26639884 -.00000015 00000+0 19935-3 0 9991 2 07530 101.9980 312.1051 0012066 203.2667 167.8423 12.53693043332082 PHASE 3B (AO-10) 1 14129U 83058B 25306.08704998 .00000174 00000+0 00000+0 0 9992 2 14129 26.1667 258.1085 6067507 52.3146 348.6538 2.05869520290812 UOSAT 2 (UO-11) 1 14781U 84021B 25306.50113257 .00001906 00000+0 20365-3 0 9990 2 14781 97.7745 270.1743 0006812 202.9394 157.1520 14.89932807223360 LUSAT (LO-19) 1 20442U 90005G 25306.49658318 .00000198 00000+0 87713-4 0 9993 2 20442 98.8989 316.9176 0012195 146.6273 213.5681 14.34019138869907 EYESAT A (AO-27) 1 22825U 93061C 25306.16097003 .00000158 00000+0 77310-4 0 9995 2 22825 98.7202 8.3213 0009198 51.7607 308.4402 14.30853719674536 ITAMSAT (IO-26) 1 22826U 93061D 25306.41718203 .00000176 00000+0 83361-4 0 9999 2 22826 98.7148 8.4738 0009456 35.8659 324.3156 14.31272550674875 RADIO ROSTO (RS-15) 1 23439U 94085A 25306.42661480 -.00000020 00000+0 63426-3 0 9990 2 23439 64.8174 309.9470 0148298 46.1887 315.1190 11.27581864270339 JAS-2 (FO-29) 1 24278U 96046B 25306.18279401 -.00000017 00000+0 20680-4 0 9994 2 24278 98.5500 180.7533 0349414 325.4136 32.4713 13.53258792442463 TECHSAT 1B (GO-32) 1 25397U 98043D 25306.45583669 .00000131 00000+0 76908-4 0 9990 2 25397 98.9885 288.7448 0002021 122.3432 237.7942 14.24359587419059 ISS (ZARYA) 1 25544U 98067A 25306.42331346 .00010070 00000+0 18610-3 0 9998 2 25544 51.6344 342.0717 0004969 8.9436 351.1640 15.49700017536601 PCSAT (NO-44) 1 26931U 01043C 25306.50193307 .00000253 00000+0 12570-3 0 9990 2 26931 67.0488 110.5318 0007153 272.1339 87.8944 14.31818430257993 SAUDISAT 1C (SO-50) 1 27607U 02058C 25306.45989558 .00001699 00000+0 22249-3 0 9992 2 27607 64.5510 110.0681 0069679 304.0578 55.3925 14.82158626230845 CUTE-1 (CO-55) 1 27844U 03031E 25306.47331625 .00000451 00000+0 21468-3 0 9992 2 27844 98.6780 312.8934 0010571 120.7133 239.5089 14.24126940159404 CUBESAT XI-IV (CO-57) 1 27848U 03031J 25306.49066354 .00000385 00000+0 18856-3 0 9995 2 27848 98.6808 312.8042 0010232 136.8865 223.3116 14.23443015159128 MOZHAETS 4 (RS-22) 1 27939U 03042A 25306.56660145 .00001631 00000+0 26337-3 0 9992 2 27939 98.3371 119.7036 0010258 267.4366 185.0400 14.72791206182187 CUBESAT XI-V 1 28895U 05043F 25306.39794900 .00002303 00000+0 37772-3 0 9997 2 28895 98.2696 92.8070 0014015 200.9386 159.1248 14.71644563 68385 CUTE-1.7+APD II (CO-65) 1 32785U 08021C 25306.52533402 .00006525 00000+0 44777-3 0 9995 2 32785 97.8040 279.0766 0011821 80.0505 280.2055 15.06294076951033 SEEDS II (CO-66) 1 32791U 08021J 25306.46545773 .00016363 00000+0 69156-3 0 9998 2 32791 97.7417 290.2906 0005427 52.2169 307.9558 15.23306459952663 YUBILEINY (RS-30) 1 32953U 08025A 25306.55176683 .00000046 00000+0 25606-3 0 9995 2 32953 82.4997 136.4212 0019962 86.4396 273.8966 12.43170054791538 KKS-1 (KISEKI) 1 33499U 09002H 25306.44282133 .00002252 00000+0 28941-3 0 9999 2 33499 98.1140 220.4649 0006969 314.0316 46.0321 14.82194969902592 SWISSCUBE 1 35932U 09051B 25306.45608490 .00001706 00000+0 35180-3 0 9992 2 35932 98.4137 205.3190 0006248 188.1463 171.9637 14.61770584856025 BEESAT-1 1 35933U 09051C 25306.21764853 .00001458 00000+0 30648-3 0 9991 2 35933 98.4068 205.1652 0004460 200.8070 159.2949 14.61118378856033 ITUPSAT1 1 35935U 09051E 25306.21844505 .00001320 00000+0 28593-3 0 9990 2 35935 98.4161 204.5824 0006511 216.2477 143.8282 14.59887041855613 XIWANG-1 (HOPE-1) 1 36122U 09072B 25306.46189556 -.00000017 00000+0 72412-4 0 9990 2 36122 100.3701 259.2630 0007917 35.3279 324.8357 13.16430599763175 O/OREOS (USA 219) 1 37224U 10062C 25306.21041247 .00003299 00000+0 32791-3 0 9991 2 37224 71.9710 233.9844 0013597 146.3565 213.8471 14.92334508 82761 JUGNU 1 37839U 11058B 25305.54761264 .00000548 00000+0 14660-3 0 9991 2 37839 19.9607 251.3246 0018756 82.8442 72.4816 14.13670575726778 SRMSAT 1 37841U 11058D 25306.43530226 .00000482 00000+0 11794-3 0 9997 2 37841 19.9734 351.8802 0011566 228.8190 159.2287 14.11490180725742 STRAND-1 1 39090U 13009E 25306.49268056 .00000471 00000+0 17330-3 0 9998 2 39090 98.3839 127.4149 0008569 181.4709 178.6454 14.36951127664504 ZACUBE-1 (TSHEPISOSAT) 1 39417U 13066B 25306.40028595 .00005819 00000+0 48391-3 0 9999 2 39417 97.7972 262.9198 0041380 285.5811 74.0845 14.98429556646737 GOMX-1 1 39430U 13066Q 25306.56307183 .00002170 00000+0 33665-3 0 9999 2 39430 97.6638 156.2012 0132405 84.8929 276.7374 14.68318276636649 CUBEBUG-2 (LO-74) 1 39440U 13066AA 25306.42330865 .00004761 00000+0 46634-3 0 9996 2 39440 97.8638 250.1810 0062220 59.2238 301.5085 14.91300176643165 FUNCUBE-1 (AO-73) 1 39444U 13066AE 25306.44327951 .00009378 00000+0 65487-3 0 9990 2 39444 97.8010 269.2694 0037586 253.3191 106.3907 15.04994615645502 UWE-3 1 39446U 13066AG 25306.12172871 .00006442 00000+0 58731-3 0 9999 2 39446 97.8398 256.4790 0051753 358.0077 2.0929 14.94440061643633 UNISAT-6 1 40012U 14033C 25306.42852197 .00003943 00000+0 44381-3 0 9993 2 40012 97.7594 98.8194 0047844 95.5149 265.1527 14.86390370612456 DUCHIFAT-1 1 40021U 14033M 25306.32410552 .00033877 00000+0 94313-3 0 9996 2 40021 98.0859 334.0413 0007932 153.3718 206.7933 15.36714206620637 QB50P1 1 40025U 14033R 25306.49981083 .00009568 00000+0 54017-3 0 9997 2 40025 98.0955 297.5795 0007444 285.7312 74.3096 15.13349584618681 LILACSAT-2 1 40908U 15049K 25306.55164841 .00016105 00000+0 36617-3 0 9998 2 40908 97.4970 330.7367 0008388 9.1856 350.9543 15.43046494560701 FOX-1A (AO-85) 1 40967U 15058D 25306.25366943 .00002775 00000+0 25903-3 0 9991 2 40967 64.7749 263.3659 0139748 145.2255 215.8090 14.89243285 79754 CAS-2T & KS-1Q 1 41847U 16066G 25306.43622549 .00001677 00000+0 24343-3 0 9993 2 41847 98.4083 19.5707 0345495 97.0525 267.0083 14.43982442472061 RADFXSAT (FOX-1B) 1 43017U 17073E 25306.17441192 .00011012 00000+0 53005-3 0 9998 2 43017 97.5002 173.3199 0165673 30.0759 330.9858 15.07559440431122 DIWATA-2B 1 43678U 18084H 25306.54172058 .00002638 00000+0 22206-3 0 9990 2 43678 98.1094 128.3872 0007949 146.0917 214.0815 14.99151583382245 ES'HAIL 2 1 43700U 18090A 25306.25780050 .00000000 00000+0 00000+0 0 9993 2 43700 0.0206 253.7219 0002446 7.7991 258.8395 1.00269675 25409 FOX-1CLIFF (AO-95) 1 43770U 18099N 25306.14103112 .00011563 00000+0 53096-3 0 9998 2 43770 97.4742 2.7535 0011325 69.8720 290.3733 15.20502390378644 ITASAT 1 43786U 18099AE 25306.02863755 .00008809 00000+0 47167-3 0 9999 2 43786 97.4398 357.2023 0015044 66.4264 293.8547 15.15159790378463 JY1SAT (JO-97) 1 43803U 18099AX 25306.42095522 .00015357 00000+0 61681-3 0 9995 2 43803 97.4492 4.4096 0006571 7.8132 352.3207 15.25024835378968 UWE-4 1 43880U 18111E 25306.23001933 .00023381 00000+0 76315-3 0 9993 2 43880 97.5831 221.7229 0013338 63.0160 297.2442 15.31691845375870 DUCHIFAT-3 1 44854U 19089C 25306.55804956 .00203721 00000+0 14411-2 0 9997 2 44854 36.9309 134.9271 0009165 345.1489 14.9005 15.72394377325758 TIANYAN 01 1 44881U 19093C 25306.50181897 .00001353 00000+0 16087-3 0 9998 2 44881 97.7801 19.0278 0015044 110.6185 249.6646 14.85959988317747 RS-44 & BREEZE-KM R/B 1 44909U 19096E 25306.43851295 .00000039 00000+0 11927-3 0 9998 2 44909 82.5180 130.3926 0216776 314.7356 43.6274 12.79745050273349 SALSAT 1 46495U 20068K 25306.46224034 .00009296 00000+0 37143-3 0 9991 2 46495 97.8758 291.5991 0011685 26.1590 334.0235 15.25308364280742 XW-3 (CAS-9) 1 50466U 21131B 25306.44843375 .00000764 00000+0 25130-3 0 9993 2 50466 98.5070 35.0725 0005077 67.5468 292.6258 14.41025747202451 GREENCUBE (IO-117) 1 53109U 22080E 25300.19655152 -.00000003 00000+0 00000+0 0 9996 2 53109 70.1635 19.2627 0008752 338.1294 21.8991 6.42583349 77098 STRATOSAT-TK 1 (RS52S) 1 57167U 23091B 25306.43448670 .00122377 00000+0 15262-2 0 9992 2 57167 97.5317 16.0326 0005166 150.0321 210.1232 15.59464262130568 UMKA 1 (RS40S) 1 57172U 23091G 25306.46010031 .00007145 00000+0 36050-3 0 9991 2 57172 97.5408 1.1100 0013713 182.9672 177.1482 15.17352022129583 CUBESX-HSE 3 (RS42S) 1 57178U 23091N 25306.52402001 .00014088 00000+0 57812-3 0 9999 2 57178 97.5440 4.9327 0012907 166.7208 193.4372 15.24268467129818 MONITOR-3 (RS58S) 1 57180U 23091Q 25306.53084708 .00011632 00000+0 50904-3 0 9990 2 57180 97.5434 3.7821 0013536 170.5671 189.5822 15.22127679129741 MONITOR-4 (RS57S) 1 57182U 23091S 25306.52205347 .00011943 00000+0 52158-3 0 9993 2 57182 97.5429 3.7329 0013540 171.2410 188.9065 15.22190349129740 MONITOR-2 (RS39S) 1 57184U 23091U 25306.50161275 .00006569 00000+0 34445-3 0 9991 2 57184 97.5435 1.2295 0012079 173.1174 187.0227 15.16046136129576 SVYATOBOR 1 (RS60S) 1 57187U 23091X 25306.52565141 .00010332 00000+0 45924-3 0 9993 2 57187 97.5441 4.4303 0010963 160.8945 199.2704 15.21656248129785 VIZARD-METEO (RS38S) 1 57189U 23091Z 25306.44411172 .00015808 00000+0 58740-3 0 9993 2 57189 97.5432 7.3566 0009466 149.8660 210.3125 15.27589558129975 NANOZOND 1 (RS49S) 1 57190U 23091AA 25306.52545484 .00056205 00000+0 11129-2 0 9993 2 57190 97.5374 14.5944 0005757 136.1296 224.0411 15.46876480130476 POLYTECH-UNIVERSE 3 (R*) 1 57191U 23091AB 25306.48988608 .00006434 00000+0 33547-3 0 9996 2 57191 97.5407 0.7363 0016220 191.8639 168.2214 15.16200395129563 UTMN 2 (RS27S) 1 57203U 23091AP 25306.54410605 .00013122 00000+0 52382-3 0 9994 2 57203 97.5430 6.2973 0010059 153.0243 207.1519 15.25243716129910 ARCCUBE 1 (RS25S) 1 57205U 23091AR 25305.68490916 .00284883 00000+0 17686-2 0 9994 2 57205 97.5216 19.1011 0001785 210.2504 149.8659 15.76198906130726 KUZGTU 1 (RS47S) 1 57217U 23091AV 25306.41924045 .00012168 00000+0 51199-3 0 9997 2 57217 97.5416 4.1777 0012968 169.1374 191.0145 15.23457196129779 SONATE-2 1 59112U 24043Q 25306.33108779 .00025202 00000+0 58808-3 0 9997 2 59112 97.5310 81.1720 0009067 313.7781 46.2715 15.42166567 92746 MESAT1 1 60209U 24125G 25306.10286776 .00027924 00000+0 63302-3 0 9994 2 60209 97.2585 156.5336 0015540 339.1883 20.8730 15.42924466 74334 OOV-CUBE (TUBSAT-30) 1 60240U 24128F 25306.38797687 .00003040 00000+0 24325-3 0 9995 2 60240 61.9951 295.5966 0058824 85.6025 275.1783 15.01230255 72040 COLIBRI-S (RS67S) 1 61746U 24199M 25306.55128120 .00018833 00000+0 51759-3 0 9991 2 61746 97.3311 174.5257 0011994 30.1085 330.0847 15.37188573102479 HORS 3 (RS81S) 1 61753U 24199U 25306.55901381 .00025196 00000+0 63482-3 0 9993 2 61753 97.3281 174.9771 0010641 38.7196 321.4811 15.39822707102519 HORS 4 (RS82S) 1 61754U 24199V 25306.53470512 .00030274 00000+0 72784-3 0 9997 2 61754 97.3270 175.2922 0010777 36.8685 323.3301 15.41209203102532 HORIZON (RS59S) 1 61757U 24199Y 25306.54605821 .00049714 00000+0 94437-3 0 9992 2 61757 97.3284 176.9042 0009818 24.6884 335.4834 15.48072394102633 ARCTICSAT 1 (RS74S) 1 61762U 24199AD 25306.57597374 .00045229 00000+0 88745-3 0 9996 2 61762 97.3286 176.8586 0009981 23.3054 336.8647 15.47154952102636 SIT-2086 1 61764U 24199AF 25306.57225869 .00019016 00000+0 46961-3 0 9994 2 61764 97.3282 175.7209 0008861 26.7997 333.3705 15.40507403 99406 MORDOVIA-IOT (RS50S) 1 61765U 24199AG 25306.50828304 .00092994 00000+0 12432-2 0 9992 2 61765 97.3230 178.6938 0008092 25.6545 334.5111 15.57694460 99608 RUZAEVKA 390 (RS44S) 1 61766U 24199AH 25306.53290703 .00067935 00000+0 10551-2 0 9999 2 61766 97.3244 178.0509 0008373 23.9844 336.1798 15.53700212 99560 HYPERVIEW 1G (RS66S) 1 61772U 24199AP 25306.54098836 .00038353 00000+0 84730-3 0 9993 2 61772 97.3270 175.5871 0012903 35.4452 324.7651 15.43670083 99402 ALTAIR (RS65S) 1 61779U 24199AW 25306.57578123 .00010577 00000+0 34749-3 0 9998 2 61779 97.3314 172.7747 0016043 43.4129 316.8373 15.31618197102366 ASRTU-1 (AO-123) 1 61781U 24199AY 25306.55193383 .00010100 00000+0 34024-3 0 9998 2 61781 97.3300 172.4651 0016503 44.3170 315.9389 15.30813960 99199 TUSUR GO (RS78S) 1 61782U 24199AZ 25306.52541229 .00049237 00000+0 96515-3 0 9998 2 61782 97.3253 176.0424 0012644 35.1781 325.0301 15.47131074 99433 SAMSAT-IONOSPHERE (RS7*) 1 61784U 24199BB 25306.56362892 .00028675 00000+0 71952-3 0 9992 2 61784 97.3280 174.6800 0014432 37.9603 322.2657 15.39872095102497 RTU MIREA 1 (RS51S) 1 61785U 24199BC 25306.54237185 .00030352 00000+0 73944-3 0 9995 2 61785 97.3277 174.8527 0014095 36.5522 323.6684 15.40763581 99358 HADES-R 1 62690U 25009CK 25306.21291986 .00092552 00000+0 18672-2 0 9991 2 62690 97.3963 27.6786 0002948 270.6008 89.4904 15.46188727 44498 TEVEL2-4 1 63213U 25052D 25306.45626275 .00018228 00000+0 73066-3 0 9997 2 63213 97.4124 198.6214 0003009 146.1844 213.9586 15.25068015 35448 TEVEL2-5 1 63214U 25052E 25306.46003655 .00018325 00000+0 73572-3 0 9990 2 63214 97.4121 198.6170 0003030 146.3494 213.7937 15.25014130 35441 TEVEL2-6 1 63215U 25052F 25306.20361624 .00016964 00000+0 68253-3 0 9993 2 63215 97.4123 198.3530 0003011 148.3855 211.7564 15.24958298 35404 TEVEL2-1 1 63217U 25052H 25306.23815979 .00016532 00000+0 67103-3 0 9999 2 63217 97.4101 198.2311 0002511 160.2142 199.9194 15.24670877 35404 TEVEL2-3 1 63218U 25052J 25306.43473152 .00017137 00000+0 69498-3 0 9996 2 63218 97.4103 198.4291 0002528 160.0431 200.0906 15.24692277 35439 TEVEL2-2 1 63219U 25052K 25306.23894251 .00016728 00000+0 67895-3 0 9996 2 63219 97.4103 198.2319 0002501 160.8603 199.2729 15.24670134 35406 TEVEL2-9 1 63237U 25052AD 25306.22927737 .00015567 00000+0 65847-3 0 9996 2 63237 97.4159 197.9831 0005513 210.7223 149.3692 15.23279605 35379 TEVEL2-7 1 63238U 25052AE 25306.43667008 .00015673 00000+0 66522-3 0 9991 2 63238 97.4164 198.1697 0005584 210.7815 149.3095 15.23163398 35406 TEVEL2-8 1 63239U 25052AF 25306.44159470 .00016043 00000+0 68138-3 0 9999 2 63239 97.4168 198.1611 0005594 210.9048 149.1861 15.23135099 35404 HADES-ICM 1 63492U 25052BN 25306.44552296 .00048478 00000+0 14921-2 0 9990 2 63492 97.4113 199.6762 0006939 202.4828 157.6112 15.33472059 35510 INNOSAT 16 (RS92S7) 1 64878U 25155C 25306.26575750 .00004912 00000+0 21649-3 0 9994 2 64878 97.4266 270.0999 0009215 263.3275 96.6912 15.22238677 46118 GEOSCAN 6 (RS92S6) 1 64879U 25155D 25306.18761565 .00012098 00000+0 49794-3 0 9992 2 64879 97.4272 270.2212 0006162 258.2673 101.7873 15.24260409 46113 GEOSCAN 1 (RS92S1) 1 64880U 25155E 25306.24849372 .00012437 00000+0 50940-3 0 9996 2 64880 97.4276 270.2968 0006032 258.7384 101.3176 15.24419471 46125 239ALFEROV (RS61S) 1 64881U 25155F 25306.22937104 .00014995 00000+0 60270-3 0 9994 2 64881 97.4285 270.3381 0005552 259.1600 100.9013 15.25011435 46122 GEOSCAN 2 (RS92S2) 1 64890U 25155Q 25306.48495720 .00011416 00000+0 46269-3 0 9992 2 64890 97.4271 270.5825 0005467 237.7818 122.2890 15.24797817 46168 GEOSCAN 5 (RS92S5) 1 64891U 25155R 25306.46591764 .00015207 00000+0 60433-3 0 9997 2 64891 97.4278 270.6149 0004284 268.7632 91.3115 15.25394149 46168 GEOSCAN 4 (RS92S4) 1 64892U 25155S 25306.46451843 .00015745 00000+0 62469-3 0 9999 2 64892 97.4280 270.6192 0004291 269.9388 90.1358 15.25441285 46169 GEOSCAN 3 (RS92S3) 1 64893U 25155T 25306.45007523 .00018679 00000+0 72994-3 0 9994 2 64893 97.4277 270.6348 0003950 275.9856 84.0931 15.25911806 46167 INNOSAT 3 (RS92S0) 1 64894U 25155U 25306.47992346 .00027355 00000+0 10201-2 0 9996 2 64894 97.4267 270.7435 0003013 285.4609 74.6297 15.27391101 46170